• In Czech Republic
  • List of Countries
  • For 7 days
  • Water Temperature
  • Satellite Maps
  • Weather Map
  • Weather Widgets
  • user-avatar
    Login

    Hourly Weather Andujar

    Today, 20 September, Thursday

    Time Temperature Precipitation Wind Pressure Humidity
    00:00 +28°C° 0 mm 1 mps 747 mmHg 46%
    01:00 +28°C° 0 mm 1 mps 746 mmHg 48%
    02:00 +27°C° 0 mm 1 mps 746 mmHg 50%
    03:00 +27°C° 0 mm 1 mps 746 mmHg 52%
    04:00 +25°C° 0 mm 0 mps 746 mmHg 53%
    05:00 +24°C° 0 mm 0 mps 746 mmHg 55%
    06:00 +23°C° 0 mm 0 mps 746 mmHg 58%
    07:00 +25°C° 0 mm 0 mps 746 mmHg 52%
    08:00 +29°C° 0 mm 1 mps 746 mmHg 47%
    09:00 +31°C° 0 mm 1 mps 746 mmHg 42%
    10:00 +32°C° 0 mm 1 mps 746 mmHg 37%
    11:00 +33°C° 0 mm 1 mps 746 mmHg 33%
    12:00 +34°C° 0 mm 1 mps 746 mmHg 29%
    13:00 +35°C° 0 mm 1 mps 745 mmHg 27%
    14:00 +36°C° 0 mm 2 mps 745 mmHg 26%
    15:00 +36°C° 0 mm 2 mps 745 mmHg 25%
    16:00 +35°C° 0 mm 2 mps 744 mmHg 26%
    17:00 +35°C° 0 mm 2 mps 744 mmHg 28%
    18:00 +34°C° 0 mm 2 mps 744 mmHg 30%
    19:00 +32°C° 0 mm 2 mps 744 mmHg 32%
    20:00 +31°C° 0 mm 2 mps 745 mmHg 35%
    21:00 +30°C° 0 mm 2 mps 745 mmHg 38%
    22:00 +29°C° 0 mm 1 mps 745 mmHg 40%
    23:00 +28°C° 0 mm 1 mps 745 mmHg 42%

    Tomorrow, 21 September, Friday

    Time Temperature Precipitation Wind Pressure Humidity
    00:00 +28°C° 0 mm 1 mps 745 mmHg 45%
    01:00 +27°C° 0 mm 1 mps 745 mmHg 47%
    02:00 +27°C° 0 mm 1 mps 744 mmHg 50%
    03:00 +26°C° 0 mm 1 mps 744 mmHg 52%
    04:00 +26°C° 0 mm 1 mps 744 mmHg 54%
    05:00 +23°C° 0 mm 0 mps 745 mmHg 56%
    06:00 +23°C° 0 mm 0 mps 745 mmHg 59%
    07:00 +25°C° 0 mm 0 mps 745 mmHg 53%
    08:00 +26°C° 0 mm 0 mps 745 mmHg 47%
    09:00 +28°C° 0 mm 0 mps 746 mmHg 41%
    10:00 +30°C° 0 mm 0 mps 746 mmHg 37%
    11:00 +32°C° 0 mm 0 mps 746 mmHg 32%
    12:00 +33°C° 0 mm 0 mps 746 mmHg 27%
    13:00 +36°C° 0 mm 1 mps 745 mmHg 26%
    14:00 +36°C° 0 mm 1 mps 745 mmHg 25%
    15:00 +36°C° 0 mm 1 mps 744 mmHg 23%
    16:00 +35°C° 0 mm 1 mps 744 mmHg 25%
    17:00 +34°C° 0 mm 1 mps 744 mmHg 26%
    18:00 +33°C° 0 mm 1 mps 744 mmHg 28%
    19:00 +32°C° 0 mm 1 mps 745 mmHg 29%
    20:00 +31°C° 0 mm 1 mps 745 mmHg 31%
    21:00 +30°C° 0 mm 1 mps 746 mmHg 33%
    22:00 +30°C° 0 mm 1 mps 746 mmHg 34%
    23:00 +29°C° 0 mm 1 mps 746 mmHg 36%

    Day after tomorrow, 22 September, Saturday

    Time Temperature Precipitation Wind Pressure Humidity
    00:00 +29°C° 0 mm 1 mps 746 mmHg 37%
    01:00 +28°C° 0 mm 1 mps 746 mmHg 39%
    02:00 +25°C° 0 mm 0 mps 746 mmHg 40%
    03:00 +25°C° 0 mm 0 mps 746 mmHg 41%
    04:00 +25°C° 0 mm 0 mps 746 mmHg 42%
    05:00 +24°C° 0 mm 0 mps 746 mmHg 43%
    06:00 +26°C° 0 mm 1 mps 747 mmHg 44%
    07:00 +28°C° 0 mm 1 mps 747 mmHg 39%
    08:00 +30°C° 0 mm 1 mps 747 mmHg 35%
    09:00 +32°C° 0 mm 1 mps 748 mmHg 30%
    10:00 +34°C° 0 mm 1 mps 748 mmHg 27%
    11:00 +35°C° 0 mm 1 mps 748 mmHg 24%
    12:00 +38°C° 0 mm 2 mps 748 mmHg 21%
    13:00 +38°C° 0 mm 2 mps 747 mmHg 20%
    14:00 +37°C° 0 mm 1 mps 747 mmHg 20%
    15:00 +39°C° 0 mm 1 mps 747 mmHg 19%
    16:00 +36°C° 0 mm 1 mps 747 mmHg 20%
    17:00 +35°C° 0 mm 1 mps 747 mmHg 22%
    18:00 +34°C° 0 mm 1 mps 747 mmHg 24%
    19:00 +33°C° 0 mm 1 mps 747 mmHg 26%
    20:00 +32°C° 0 mm 1 mps 748 mmHg 28%
    21:00 +30°C° 0 mm 1 mps 748 mmHg 31%
    22:00 +30°C° 0 mm 1 mps 748 mmHg 33%
    23:00 +29°C° 0 mm 1 mps 748 mmHg 35%

    23 September, Sunday

    Time Temperature Precipitation Wind Pressure Humidity
    00:00 +28°C° 0 mm 1 mps 748 mmHg 37%
    01:00 +28°C° 0 mm 1 mps 748 mmHg 38%
    02:00 +27°C° 0 mm 1 mps 748 mmHg 39%
    03:00 +27°C° 0 mm 1 mps 747 mmHg 40%
    04:00 +26°C° 0 mm 1 mps 747 mmHg 41%
    05:00 +26°C° 0 mm 1 mps 747 mmHg 42%
    06:00 +25°C° 0 mm 1 mps 747 mmHg 43%
    07:00 +28°C° 0 mm 1 mps 747 mmHg 38%
    08:00 +30°C° 0 mm 1 mps 748 mmHg 33%
    09:00 +32°C° 0 mm 1 mps 748 mmHg 28%
    10:00 +33°C° 0 mm 1 mps 748 mmHg 25%
    11:00 +35°C° 0 mm 1 mps 748 mmHg 21%
    12:00 +37°C° 0 mm 1 mps 748 mmHg 18%
    13:00 +37°C° 0 mm 1 mps 747 mmHg 17%
    14:00 +37°C° 0 mm 1 mps 747 mmHg 15%
    15:00 +39°C° 0 mm 1 mps 746 mmHg 14%
    16:00 +36°C° 0 mm 1 mps 746 mmHg 16%
    17:00 +35°C° 0 mm 1 mps 746 mmHg 17%
    18:00 +34°C° 0 mm 1 mps 746 mmHg 18%
    19:00 +32°C° 0 mm 1 mps 746 mmHg 19%
    20:00 +31°C° 0 mm 1 mps 747 mmHg 20%
    21:00 +30°C° 0 mm 1 mps 747 mmHg 21%
    22:00 +29°C° 0 mm 1 mps 747 mmHg 22%
    23:00 +29°C° 0 mm 1 mps 747 mmHg 24%

    24 September, Monday

    Time Temperature Precipitation Wind Pressure Humidity
    00:00 +28°C° 0 mm 1 mps 747 mmHg 25%
    01:00 +27°C° 0 mm 1 mps 746 mmHg 25%
    02:00 +25°C° 0 mm 0 mps 746 mmHg 26%
    03:00 +24°C° 0 mm 0 mps 746 mmHg 27%
    04:00 +24°C° 0 mm 0 mps 746 mmHg 28%
    05:00 +24°C° 0 mm 0 mps 746 mmHg 29%
    06:00 +23°C° 0 mm 0 mps 746 mmHg 29%
    07:00 +27°C° 0 mm 1 mps 746 mmHg 26%
    08:00 +30°C° 0 mm 1 mps 747 mmHg 23%
    09:00 +32°C° 0 mm 1 mps 747 mmHg 20%
    10:00 +34°C° 0 mm 1 mps 747 mmHg 17%
    11:00 +35°C° 0 mm 1 mps 747 mmHg 15%
    12:00 +37°C° 0 mm 1 mps 747 mmHg 13%
    13:00 +37°C° 0 mm 1 mps 746 mmHg 12%
    14:00 +37°C° 0 mm 1 mps 746 mmHg 11%
    15:00 +39°C° 0 mm 1 mps 745 mmHg 11%
    16:00 +36°C° 0 mm 1 mps 745 mmHg 13%
    17:00 +35°C° 0 mm 1 mps 745 mmHg 14%
    18:00 +33°C° 0 mm 1 mps 745 mmHg 16%
    19:00 +32°C° 0 mm 1 mps 745 mmHg 18%
    20:00 +31°C° 0 mm 1 mps 746 mmHg 20%
    21:00 +30°C° 0 mm 1 mps 746 mmHg 21%
    22:00 +29°C° 0 mm 1 mps 746 mmHg 24%
    23:00 +28°C° 0 mm 1 mps 746 mmHg 26%

    25 September, Tuesday

    Time Temperature Precipitation Wind Pressure Humidity
    00:00 +28°C° 0 mm 1 mps 746 mmHg 29%
    01:00 +27°C° 0 mm 1 mps 746 mmHg 31%
    02:00 +27°C° 0 mm 1 mps 746 mmHg 33%
    03:00 +26°C° 0 mm 1 mps 746 mmHg 35%
    04:00 +26°C° 0 mm 1 mps 746 mmHg 37%
    05:00 +25°C° 0 mm 1 mps 746 mmHg 38%
    06:00 +25°C° 0 mm 1 mps 746 mmHg 40%
    07:00 +27°C° 0 mm 1 mps 747 mmHg 36%
    08:00 +29°C° 0 mm 1 mps 747 mmHg 32%
    09:00 +31°C° 0 mm 1 mps 747 mmHg 28%
    10:00 +34°C° 0 mm 2 mps 747 mmHg 25%
    11:00 +35°C° 0 mm 2 mps 747 mmHg 22%
    12:00 +37°C° 0 mm 2 mps 747 mmHg 19%
    13:00 +37°C° 0 mm 2 mps 746 mmHg 18%
    14:00 +38°C° 0 mm 2 mps 746 mmHg 18%
    15:00 +38°C° 0 mm 2 mps 746 mmHg 17%
    16:00 +37°C° 0 mm 2 mps 746 mmHg 20%
    17:00 +35°C° 0 mm 2 mps 746 mmHg 23%
    18:00 +34°C° 0 mm 2 mps 746 mmHg 26%
    19:00 +31°C° 0 mm 2 mps 747 mmHg 33%
    20:00 +30°C° 0 mm 2 mps 747 mmHg 39%
    21:00 +28°C° 0 mm 2 mps 748 mmHg 45%
    22:00 +28°C° 0 mm 2 mps 748 mmHg 49%
    23:00 +27°C° 0 mm 2 mps 748 mmHg 52%
    Show more